Powrót do katalogu

DELTA 1 DEB

AktywnyLEO
NORAD 3127·DEBRIS·🇺🇸 United States

Wystrzelony Jan 11, 1968 z Vandenberg Space Force Base

Loading…

Następne Przeloty (najbliższe 24 godziny)

TLE

ŚwieżeSource: Space-Track

Epoka: Sep 14, 2026, 05:56 UTC

1 03127U 68002D   26257.24769367 -.00000066  00000-0  19608-4 0  9996
2 03127 105.3355  78.0704 0321070 155.1572  21.5076 12.84897535750401

Śledź DELTA 1 DEB w czasie rzeczywistym z AllMySat

Download on the App Store